TimeCST,TemperatureF,Dew PointF,Humidity,Sea Level PressureIn,VisibilityMPH,Wind Direction,Wind SpeedMPH,Gust SpeedMPH,PrecipitationIn,Events,Conditions,WindDirDegrees,DateUTC
12:53 AM,61.0,46.9,60,29.71,10.0,South,11.5,-,N/A,,Clear,180,2012-12-19 06:53:00
1:53 AM,61.0,51.1,70,29.71,10.0,South,10.4,-,N/A,,Clear,190,2012-12-19 07:53:00
2:53 AM,60.1,53.1,78,29.71,10.0,South,10.4,-,N/A,,Clear,180,2012-12-19 08:53:00
3:53 AM,60.1,55.0,83,29.69,10.0,South,11.5,19.6,N/A,,Clear,190,2012-12-19 09:53:00
4:44 AM,60.8,57.2,88,29.72,9.0,South,10.4,18.4,N/A,,Mostly Cloudy,190,2012-12-19 10:44:00
4:53 AM,61.0,57.9,90,29.69,9.0,South,11.5,-,N/A,,Mostly Cloudy,180,2012-12-19 10:53:00
5:53 AM,64.0,59.0,84,29.68,8.0,South,17.3,28.8,N/A,,Overcast,180,2012-12-19 11:53:00
6:27 AM,62.6,59.0,88,29.68,8.0,South,9.2,19.6,N/A,,Scattered Clouds,180,2012-12-19 12:27:00
6:53 AM,64.0,59.0,84,29.68,8.0,South,13.8,20.7,N/A,,Scattered Clouds,180,2012-12-19 12:53:00
7:53 AM,64.0,60.1,87,29.67,8.0,South,17.3,25.3,N/A,,Scattered Clouds,170,2012-12-19 13:53:00
8:25 AM,64.4,60.8,88,29.68,8.0,South,15.0,20.7,N/A,,Mostly Cloudy,170,2012-12-19 14:25:00
8:53 AM,66.0,61.0,84,29.68,8.0,South,16.1,23.0,N/A,,Overcast,180,2012-12-19 14:53:00
9:53 AM,69.1,61.0,75,29.68,8.0,South,20.7,34.5,N/A,,Overcast,180,2012-12-19 15:53:00
10:53 AM,71.1,61.0,70,29.64,8.0,South,20.7,31.1,N/A,,Mostly Cloudy,180,2012-12-19 16:53:00
11:53 AM,73.0,60.1,64,29.61,8.0,South,19.6,28.8,N/A,,Mostly Cloudy,190,2012-12-19 17:53:00
12:09 PM,73.4,59.0,61,29.62,9.0,South,23.0,34.5,N/A,,Mostly Cloudy,190,2012-12-19 18:09:00
12:53 PM,73.9,59.0,59,29.57,9.0,South,21.9,33.4,N/A,,Partly Cloudy,190,2012-12-19 18:53:00
1:53 PM,75.0,59.0,57,29.54,10.0,South,15.0,27.6,N/A,,Clear,190,2012-12-19 19:53:00
2:53 PM,77.0,59.0,54,29.53,8.0,South,12.7,-,N/A,,Clear,180,2012-12-19 20:53:00
3:53 PM,77.0,57.9,52,29.52,8.0,South,15.0,24.2,N/A,,Clear,180,2012-12-19 21:53:00
4:53 PM,75.9,59.0,56,29.53,8.0,South,12.7,19.6,N/A,,Clear,190,2012-12-19 22:53:00
5:53 PM,75.0,57.9,55,29.53,8.0,South,11.5,-,N/A,,Clear,190,2012-12-19 23:53:00
6:53 PM,73.9,59.0,59,29.54,8.0,South,9.2,-,N/A,,Clear,180,2012-12-20 00:53:00
7:53 PM,75.0,59.0,57,29.57,8.0,SW,12.7,20.7,N/A,,Partly Cloudy,230,2012-12-20 01:53:00
7:57 PM,75.2,59.0,57,29.60,8.0,West,13.8,-,N/A,,Partly Cloudy,270,2012-12-20 01:57:00
8:01 PM,73.4,57.2,57,29.61,8.0,West,11.5,20.7,N/A,,Scattered Clouds,260,2012-12-20 02:01:00
8:28 PM,75.2,37.4,25,29.61,4.0,West,19.6,28.8,N/A,,Widespread Dust,260,2012-12-20 02:28:00
8:39 PM,75.2,35.6,24,29.61,4.0,West,19.6,32.2,N/A,,Widespread Dust,270,2012-12-20 02:39:00
8:49 PM,75.2,33.8,22,29.61,2.0,West,23.0,32.2,N/A,,Widespread Dust,270,2012-12-20 02:49:00
8:53 PM,73.9,33.1,22,29.59,2.0,West,23.0,39.1,N/A,,Widespread Dust,280,2012-12-20 02:53:00
8:59 PM,73.4,32.0,22,29.63,1.5,WNW,26.5,39.1,N/A,,Widespread Dust,290,2012-12-20 02:59:00
9:04 PM,71.6,33.8,25,29.64,1.2,WNW,24.2,39.1,N/A,,Widespread Dust,290,2012-12-20 03:04:00
9:16 PM,68.0,32.0,26,29.66,2.0,WNW,25.3,38.0,N/A,,Widespread Dust,300,2012-12-20 03:16:00
9:30 PM,66.2,26.6,23,29.68,2.0,West,20.7,39.1,N/A,,Widespread Dust,280,2012-12-20 03:30:00
9:53 PM,66.0,19.0,17,29.68,2.5,West,25.3,48.3,N/A,,Widespread Dust,280,2012-12-20 03:53:00
10:36 PM,60.8,19.4,20,29.76,3.0,WNW,32.2,46.0,N/A,,Widespread Dust,290,2012-12-20 04:36:00
10:53 PM,59.0,19.0,21,29.76,4.0,West,26.5,39.1,N/A,,Widespread Dust,280,2012-12-20 04:53:00
11:33 PM,51.8,24.8,35,29.83,6.0,WNW,28.8,39.1,N/A,,Widespread Dust,290,2012-12-20 05:33:00
11:53 PM,48.9,25.0,39,29.85,6.0,WNW,29.9,41.4,N/A,,Widespread Dust,300,2012-12-20 05:53:00